Year,Month,Day,Hour,Minute,Value (Times are PST for windgust in km/hr)
2018,09,22,00,00,1.60
2018,09,22,00,01,1.60
2018,09,22,00,02,3.20
2018,09,22,00,03,1.60
2018,09,22,00,04,1.60
2018,09,22,00,06,1.60
2018,09,22,00,07,1.60
2018,09,22,00,08,3.20
2018,09,22,00,09,1.60
2018,09,22,00,13,4.80
2018,09,22,00,14,3.20
2018,09,22,00,15,1.60
2018,09,22,01,33,4.80
2018,09,22,01,34,3.20
2018,09,22,01,35,3.20
2018,09,22,01,36,1.60
2018,09,22,01,37,3.20
2018,09,22,01,38,4.80
2018,09,22,01,39,1.60
2018,09,22,02,43,4.80
2018,09,22,02,44,6.40
2018,09,22,02,45,3.20
2018,09,22,03,14,4.80
2018,09,22,03,15,4.80
2018,09,22,03,16,3.20
2018,09,22,03,17,1.60
2018,09,22,03,18,3.20
2018,09,22,03,19,4.80
2018,09,22,03,20,1.60
2018,09,22,03,21,6.40
2018,09,22,03,22,4.80
2018,09,22,03,23,4.80
2018,09,22,03,24,3.20
2018,09,22,03,25,3.20
2018,09,22,03,34,6.40
2018,09,22,03,35,3.20
2018,09,22,03,36,3.20
2018,09,22,03,37,4.80
2018,09,22,03,38,3.20
2018,09,22,03,39,1.60
2018,09,22,04,02,1.60
2018,09,22,04,04,1.60
2018,09,22,05,54,1.60
2018,09,22,06,49,3.20
2018,09,22,06,50,4.80
2018,09,22,06,51,3.20
2018,09,22,06,52,3.20
2018,09,22,06,53,3.20
2018,09,22,06,54,1.60
2018,09,22,06,55,3.20
2018,09,22,06,56,1.60
2018,09,22,06,57,1.60
2018,09,22,06,58,4.80
2018,09,22,06,59,1.60
2018,09,22,07,00,3.20
2018,09,22,07,01,1.60
2018,09,22,07,02,3.20
2018,09,22,07,03,4.80
2018,09,22,07,04,3.20
2018,09,22,07,05,1.60
2018,09,22,07,06,1.60
2018,09,22,07,07,1.60
2018,09,22,07,08,1.60
2018,09,22,09,05,6.40
2018,09,22,09,06,4.80
2018,09,22,09,07,3.20
2018,09,22,09,08,3.20
2018,09,22,09,11,1.60
2018,09,22,09,12,6.40
2018,09,22,09,13,4.80
2018,09,22,09,14,4.80
2018,09,22,09,15,4.80
2018,09,22,09,16,4.80
2018,09,22,09,17,14.50
2018,09,22,09,18,8.10
2018,09,22,09,19,3.20
2018,09,22,09,20,8.10
2018,09,22,09,21,20.90
2018,09,22,09,22,17.70
2018,09,22,09,23,6.40
2018,09,22,09,24,8.10
2018,09,22,09,25,3.20
2018,09,22,09,26,6.40
2018,09,22,09,27,11.30
2018,09,22,09,28,8.10
2018,09,22,09,29,14.50
2018,09,22,09,30,6.40
2018,09,22,09,31,9.60
2018,09,22,09,32,6.40
2018,09,22,09,33,3.20
2018,09,22,09,34,8.10
2018,09,22,09,35,8.10
2018,09,22,09,36,4.80
2018,09,22,09,37,4.80
2018,09,22,09,38,6.40
2018,09,22,09,39,14.50
2018,09,22,09,40,12.90
2018,09,22,09,41,8.10
2018,09,22,09,42,4.80
2018,09,22,09,43,8.10
2018,09,22,09,44,16.10
2018,09,22,09,45,11.30
2018,09,22,09,46,12.90
2018,09,22,09,47,17.70
2018,09,22,09,48,9.60
2018,09,22,09,49,8.10
2018,09,22,09,50,11.30
2018,09,22,09,51,11.30
2018,09,22,09,52,16.10
2018,09,22,09,53,9.60
2018,09,22,09,54,8.10
2018,09,22,09,55,11.30
2018,09,22,09,56,8.10
2018,09,22,09,57,6.40
2018,09,22,09,58,4.80
2018,09,22,09,59,8.10
2018,09,22,10,00,8.10
2018,09,22,10,01,6.40
2018,09,22,10,02,9.60
2018,09,22,10,03,16.10
2018,09,22,10,04,19.30
2018,09,22,10,05,22.50
2018,09,22,10,06,12.90
2018,09,22,10,07,8.10
2018,09,22,10,08,9.60
2018,09,22,10,09,8.10
2018,09,22,10,10,6.40
2018,09,22,10,11,8.10
2018,09,22,10,12,6.40
2018,09,22,10,13,4.80
2018,09,22,10,14,9.60
2018,09,22,10,15,20.90
2018,09,22,10,16,11.30
2018,09,22,10,17,22.50
2018,09,22,10,18,9.60
2018,09,22,10,19,11.30
2018,09,22,10,20,9.60
2018,09,22,10,21,12.90
2018,09,22,10,22,14.50
2018,09,22,10,23,11.30
2018,09,22,10,24,11.30
2018,09,22,10,25,9.60
2018,09,22,10,26,8.10
2018,09,22,10,27,14.50
2018,09,22,10,28,9.60
2018,09,22,10,29,12.90
2018,09,22,10,30,8.10
2018,09,22,10,31,8.10
2018,09,22,10,32,9.60
2018,09,22,10,33,9.60
2018,09,22,10,34,9.60
2018,09,22,10,35,9.60
2018,09,22,10,36,9.60
2018,09,22,10,37,11.30
2018,09,22,10,38,6.40
2018,09,22,10,39,6.40
2018,09,22,10,40,4.80
2018,09,22,10,41,8.10
2018,09,22,10,42,4.80
2018,09,22,10,43,4.80
2018,09,22,10,44,1.60
2018,09,22,10,45,6.40
2018,09,22,10,46,4.80
2018,09,22,10,47,8.10
2018,09,22,10,48,6.40
2018,09,22,10,49,6.40
2018,09,22,10,50,6.40
2018,09,22,10,51,3.20
2018,09,22,10,52,4.80
2018,09,22,10,53,4.80
2018,09,22,10,54,4.80
2018,09,22,10,55,6.40
2018,09,22,10,56,4.80
2018,09,22,10,57,4.80
2018,09,22,10,58,8.10
2018,09,22,10,59,3.20
2018,09,22,11,00,4.80
2018,09,22,11,01,6.40
2018,09,22,11,02,4.80
2018,09,22,11,03,4.80
2018,09,22,11,05,3.20
2018,09,22,11,06,8.10
2018,09,22,11,07,6.40
2018,09,22,11,08,6.40
2018,09,22,11,10,6.40
2018,09,22,11,11,4.80
2018,09,22,11,14,1.60
2018,09,22,11,15,4.80
2018,09,22,11,16,4.80
2018,09,22,11,17,8.10
2018,09,22,11,18,8.10
2018,09,22,11,19,4.80
2018,09,22,11,20,8.10
2018,09,22,11,21,8.10
2018,09,22,11,22,8.10
2018,09,22,11,23,6.40
2018,09,22,11,24,3.20
2018,09,22,11,25,6.40
2018,09,22,11,26,6.40
2018,09,22,11,29,1.60
2018,09,22,11,30,8.10
2018,09,22,11,31,4.80
2018,09,22,11,32,6.40
2018,09,22,11,33,6.40
2018,09,22,11,34,3.20
2018,09,22,11,35,1.60
2018,09,22,11,36,3.20
2018,09,22,11,37,3.20
2018,09,22,11,38,3.20
2018,09,22,11,39,4.80
2018,09,22,11,40,3.20
2018,09,22,11,44,6.40
2018,09,22,11,45,16.10
2018,09,22,11,46,8.10
2018,09,22,11,47,6.40
2018,09,22,11,48,4.80
2018,09,22,11,49,4.80
2018,09,22,11,50,6.40
2018,09,22,11,51,3.20
2018,09,22,11,52,3.20
2018,09,22,11,54,1.60
2018,09,22,11,55,9.60
2018,09,22,11,56,11.30
2018,09,22,11,57,9.60
2018,09,22,11,58,8.10
2018,09,22,11,59,8.10
2018,09,22,12,00,9.60
2018,09,22,12,01,8.10
2018,09,22,12,02,11.30
2018,09,22,12,03,8.10
2018,09,22,12,04,17.70
2018,09,22,12,05,11.30
2018,09,22,12,06,11.30
2018,09,22,12,07,11.30
2018,09,22,12,08,17.70
2018,09,22,12,09,14.50
2018,09,22,12,10,14.50
2018,09,22,12,11,16.10
2018,09,22,12,12,12.90
2018,09,22,12,13,16.10
2018,09,22,12,14,11.30
2018,09,22,12,15,8.10
2018,09,22,12,16,17.70
2018,09,22,12,17,9.60
2018,09,22,12,18,11.30
2018,09,22,12,19,17.70
2018,09,22,12,20,14.50
2018,09,22,12,21,9.60
2018,09,22,12,22,9.60
2018,09,22,12,23,6.40
2018,09,22,12,24,9.60
2018,09,22,12,25,16.10
2018,09,22,12,26,17.70
2018,09,22,12,27,14.50
2018,09,22,12,28,14.50
2018,09,22,12,29,19.30
2018,09,22,12,30,8.10
2018,09,22,12,31,9.60
2018,09,22,12,32,14.50
2018,09,22,12,33,17.70
2018,09,22,12,34,11.30
2018,09,22,12,35,9.60
2018,09,22,12,36,16.10
2018,09,22,12,37,11.30
2018,09,22,12,38,6.40
2018,09,22,12,39,11.30
2018,09,22,12,40,14.50
2018,09,22,12,41,8.10
2018,09,22,12,42,6.40
2018,09,22,12,43,11.30
2018,09,22,12,44,19.30
2018,09,22,12,45,14.50
2018,09,22,12,46,9.60
2018,09,22,12,47,16.10
2018,09,22,12,48,16.10
2018,09,22,12,49,14.50
2018,09,22,12,50,16.10
2018,09,22,12,51,9.60
2018,09,22,12,52,9.60
2018,09,22,12,53,6.40
2018,09,22,12,54,11.30
2018,09,22,12,55,9.60
2018,09,22,12,56,16.10
2018,09,22,12,57,9.60
2018,09,22,12,58,12.90
2018,09,22,12,59,8.10
2018,09,22,13,00,9.60
2018,09,22,13,01,8.10
2018,09,22,13,02,6.40
2018,09,22,13,03,11.30
2018,09,22,13,04,6.40
2018,09,22,13,05,14.50
2018,09,22,13,06,8.10
2018,09,22,13,07,6.40
2018,09,22,13,08,3.20
2018,09,22,13,09,8.10
2018,09,22,13,10,9.60
2018,09,22,13,11,6.40
2018,09,22,13,12,9.60
2018,09,22,13,13,9.60
2018,09,22,13,14,4.80
2018,09,22,13,15,9.60
2018,09,22,13,16,9.60
2018,09,22,13,17,9.60
2018,09,22,13,18,4.80
2018,09,22,13,19,6.40
2018,09,22,13,20,6.40
2018,09,22,13,21,6.40
2018,09,22,13,22,8.10
2018,09,22,13,23,17.70
2018,09,22,13,24,12.90
2018,09,22,13,25,6.40
2018,09,22,13,26,6.40
2018,09,22,13,27,6.40
2018,09,22,13,28,11.30
2018,09,22,13,29,11.30
2018,09,22,13,30,16.10
2018,09,22,13,31,8.10
2018,09,22,13,32,9.60
2018,09,22,13,33,11.30
2018,09,22,13,34,9.60
2018,09,22,13,35,14.50
2018,09,22,13,36,16.10
2018,09,22,13,37,19.30
2018,09,22,13,38,12.90
2018,09,22,13,39,14.50
2018,09,22,13,40,8.10
2018,09,22,13,41,14.50
2018,09,22,13,42,16.10
2018,09,22,13,43,9.60
2018,09,22,13,44,8.10
2018,09,22,13,45,8.10
2018,09,22,13,46,8.10
2018,09,22,13,47,11.30
2018,09,22,13,48,16.10
2018,09,22,13,49,14.50
2018,09,22,13,50,6.40
2018,09,22,13,51,12.90
2018,09,22,13,52,11.30
2018,09,22,13,53,9.60
2018,09,22,13,54,8.10
2018,09,22,13,55,8.10
2018,09,22,13,56,17.70
2018,09,22,13,57,11.30
2018,09,22,13,58,11.30
2018,09,22,13,59,8.10
2018,09,22,14,00,11.30
2018,09,22,14,01,9.60
2018,09,22,14,02,6.40
2018,09,22,14,03,6.40
2018,09,22,14,04,9.60
2018,09,22,14,05,16.10
2018,09,22,14,06,9.60
2018,09,22,14,07,6.40
2018,09,22,14,08,8.10
2018,09,22,14,09,11.30
2018,09,22,14,10,16.10
2018,09,22,14,11,17.70
2018,09,22,14,12,9.60
2018,09,22,14,13,16.10
2018,09,22,14,14,19.30
2018,09,22,14,15,11.30
2018,09,22,14,16,11.30
2018,09,22,14,17,14.50
2018,09,22,14,18,17.70
2018,09,22,14,19,16.10
2018,09,22,14,20,12.90
2018,09,22,14,21,9.60
2018,09,22,14,22,14.50
2018,09,22,14,23,11.30
2018,09,22,14,24,11.30
2018,09,22,14,25,17.70
2018,09,22,14,26,16.10
2018,09,22,14,27,9.60
2018,09,22,14,28,6.40
2018,09,22,14,29,11.30
2018,09,22,14,30,17.70
2018,09,22,14,31,16.10
2018,09,22,14,32,9.60
2018,09,22,14,33,14.50
2018,09,22,14,34,14.50
2018,09,22,14,35,11.30
2018,09,22,14,36,6.40
2018,09,22,14,37,9.60
2018,09,22,14,38,20.90
2018,09,22,14,39,22.50
2018,09,22,14,40,9.60
2018,09,22,14,41,24.20
2018,09,22,14,42,24.20
2018,09,22,14,43,17.70
2018,09,22,14,44,19.30
2018,09,22,14,45,11.30
2018,09,22,14,46,11.30
2018,09,22,14,47,20.90
2018,09,22,14,48,9.60
2018,09,22,14,49,8.10
2018,09,22,14,50,19.30
2018,09,22,14,51,16.10
2018,09,22,14,52,11.30
2018,09,22,14,53,22.50
2018,09,22,14,54,22.50
2018,09,22,14,55,24.20
2018,09,22,14,56,17.70
2018,09,22,14,57,17.70
2018,09,22,14,58,16.10
2018,09,22,14,59,14.50
2018,09,22,15,00,14.50
2018,09,22,15,01,16.10
2018,09,22,15,02,27.40
2018,09,22,15,03,19.30
2018,09,22,15,04,22.50
2018,09,22,15,05,19.30
2018,09,22,15,06,8.10
2018,09,22,15,07,20.90
2018,09,22,15,08,24.20
2018,09,22,15,09,20.90
2018,09,22,15,10,27.40
2018,09,22,15,11,24.20
2018,09,22,15,12,17.70
2018,09,22,15,13,9.60
2018,09,22,15,14,6.40
2018,09,22,15,15,25.70
2018,09,22,15,16,16.10
2018,09,22,15,17,14.50
2018,09,22,15,18,19.30
2018,09,22,15,19,16.10
2018,09,22,15,20,22.50
2018,09,22,15,21,27.40
2018,09,22,15,22,19.30
2018,09,22,15,23,25.70
2018,09,22,15,24,19.30
2018,09,22,15,25,19.30
2018,09,22,15,26,33.80
2018,09,22,15,27,30.60
2018,09,22,15,28,25.70
2018,09,22,15,29,24.20
2018,09,22,15,30,17.70
2018,09,22,15,31,27.40
2018,09,22,15,32,25.70
2018,09,22,15,33,25.70
2018,09,22,15,34,40.20
2018,09,22,15,35,25.70
2018,09,22,15,36,16.10
2018,09,22,15,37,22.50
2018,09,22,15,38,29.00
2018,09,22,15,39,30.60
2018,09,22,15,40,16.10
2018,09,22,15,41,11.30
2018,09,22,15,42,30.60
2018,09,22,15,43,30.60
2018,09,22,15,44,25.70
2018,09,22,15,45,27.40
2018,09,22,15,46,35.40
2018,09,22,15,47,22.50
2018,09,22,15,48,16.10
2018,09,22,15,49,11.30
2018,09,22,15,50,22.50
2018,09,22,15,51,29.00
2018,09,22,15,52,22.50
2018,09,22,15,53,16.10
2018,09,22,15,54,16.10
2018,09,22,15,55,14.50
2018,09,22,15,56,14.50
2018,09,22,15,57,20.90
2018,09,22,15,58,17.70
2018,09,22,15,59,19.30
2018,09,22,16,00,16.10
2018,09,22,16,01,35.40
2018,09,22,16,02,22.50
2018,09,22,16,03,17.70
2018,09,22,16,04,16.10
2018,09,22,16,05,14.50
2018,09,22,16,06,16.10
2018,09,22,16,07,16.10
2018,09,22,16,08,20.90
2018,09,22,16,09,19.30
2018,09,22,16,10,27.40
2018,09,22,16,11,19.30
2018,09,22,16,12,17.70
2018,09,22,16,13,19.30
2018,09,22,16,14,29.00
2018,09,22,16,15,25.70
2018,09,22,16,16,19.30
2018,09,22,16,17,30.60
2018,09,22,16,18,33.80
2018,09,22,16,19,33.80
2018,09,22,16,20,14.50
2018,09,22,16,21,19.30
2018,09,22,16,22,14.50
2018,09,22,16,23,19.30
2018,09,22,16,24,20.90
2018,09,22,16,25,20.90
2018,09,22,16,26,17.70
2018,09,22,16,27,25.70
2018,09,22,16,28,24.20
2018,09,22,16,29,20.90
2018,09,22,16,30,20.90
2018,09,22,16,31,20.90
2018,09,22,16,32,19.30
2018,09,22,16,33,19.30
2018,09,22,16,34,17.70
2018,09,22,16,35,20.90
2018,09,22,16,36,30.60
2018,09,22,16,37,27.40
2018,09,22,16,38,30.60
2018,09,22,16,39,30.60
2018,09,22,16,40,27.40
2018,09,22,16,41,30.60
2018,09,22,16,42,27.40
2018,09,22,16,43,20.90
2018,09,22,16,44,20.90
2018,09,22,16,45,17.70
2018,09,22,16,46,32.20
2018,09,22,16,47,32.20
2018,09,22,16,48,27.40
2018,09,22,16,49,24.20
2018,09,22,16,50,27.40
2018,09,22,16,51,19.30
2018,09,22,16,52,25.70
2018,09,22,16,53,29.00
2018,09,22,16,54,22.50
2018,09,22,16,55,25.70
2018,09,22,16,56,24.20
2018,09,22,16,57,20.90
2018,09,22,16,58,30.60
2018,09,22,16,59,38.60
2018,09,22,17,00,25.70
2018,09,22,17,01,33.80
2018,09,22,17,02,32.20
2018,09,22,17,03,29.00
2018,09,22,17,04,22.50
2018,09,22,17,05,24.20
2018,09,22,17,06,19.30
2018,09,22,17,07,24.20
2018,09,22,17,08,24.20
2018,09,22,17,09,24.20
2018,09,22,17,10,19.30
2018,09,22,17,11,32.20
2018,09,22,17,12,30.60
2018,09,22,17,13,27.40
2018,09,22,17,14,20.90
2018,09,22,17,15,19.30
2018,09,22,17,16,20.90
2018,09,22,17,17,19.30
2018,09,22,17,18,22.50
2018,09,22,17,19,17.70
2018,09,22,17,20,22.50
2018,09,22,17,21,29.00
2018,09,22,17,22,16.10
2018,09,22,17,23,17.70
2018,09,22,17,24,24.20
2018,09,22,17,25,24.20
2018,09,22,17,26,14.50
2018,09,22,17,27,19.30
2018,09,22,17,28,25.70
2018,09,22,17,29,22.50
2018,09,22,17,30,22.50
2018,09,22,17,31,19.30
2018,09,22,17,32,32.20
2018,09,22,17,33,20.90
2018,09,22,17,34,19.30
2018,09,22,17,35,14.50
2018,09,22,17,36,22.50
2018,09,22,17,37,27.40
2018,09,22,17,38,20.90
2018,09,22,17,39,22.50
2018,09,22,17,40,25.70
2018,09,22,17,41,29.00
2018,09,22,17,42,43.50
2018,09,22,17,43,49.90
2018,09,22,17,44,32.20
2018,09,22,17,45,33.80
2018,09,22,17,46,32.20
2018,09,22,17,47,37.00
2018,09,22,17,48,41.80
2018,09,22,17,49,35.40
2018,09,22,17,50,30.60
2018,09,22,17,51,30.60
2018,09,22,17,52,27.40
2018,09,22,17,53,38.60
2018,09,22,17,54,32.20
2018,09,22,17,55,40.20
2018,09,22,17,56,35.40
2018,09,22,17,57,51.50
2018,09,22,17,58,29.00
2018,09,22,17,59,35.40
2018,09,22,18,00,30.60
2018,09,22,18,01,30.60
2018,09,22,18,02,25.70
2018,09,22,18,03,30.60
2018,09,22,18,04,24.20
2018,09,22,18,05,25.70
2018,09,22,18,06,20.90
2018,09,22,18,07,35.40
2018,09,22,18,08,35.40
2018,09,22,18,09,45.10
2018,09,22,18,10,37.00
2018,09,22,18,11,37.00
2018,09,22,18,12,38.60
2018,09,22,18,13,29.00
2018,09,22,18,14,22.50
2018,09,22,18,15,27.40
2018,09,22,18,16,41.80
2018,09,22,18,17,35.40
2018,09,22,18,18,43.50
2018,09,22,18,19,35.40
2018,09,22,18,20,27.40
2018,09,22,18,21,30.60
2018,09,22,18,22,33.80
2018,09,22,18,23,35.40
2018,09,22,18,24,32.20
2018,09,22,18,25,33.80
2018,09,22,18,26,29.00
2018,09,22,18,27,19.30
2018,09,22,18,28,14.50
2018,09,22,18,29,14.50
2018,09,22,18,30,24.20
2018,09,22,18,31,14.50
2018,09,22,18,32,29.00
2018,09,22,18,33,20.90
2018,09,22,18,34,25.70
2018,09,22,18,35,30.60
2018,09,22,18,36,24.20
2018,09,22,18,37,20.90
2018,09,22,18,38,16.10
2018,09,22,18,39,16.10
2018,09,22,18,40,19.30
2018,09,22,18,41,24.20
2018,09,22,18,42,35.40
2018,09,22,18,43,30.60
2018,09,22,18,44,19.30
2018,09,22,18,45,19.30
2018,09,22,18,46,24.20
2018,09,22,18,47,16.10
2018,09,22,18,48,14.50
2018,09,22,18,49,6.40
2018,09,22,18,50,17.70
2018,09,22,18,51,29.00
2018,09,22,18,52,27.40
2018,09,22,18,53,35.40
2018,09,22,18,54,35.40
2018,09,22,18,55,25.70
2018,09,22,18,56,19.30
2018,09,22,18,57,20.90
2018,09,22,18,58,29.00
2018,09,22,18,59,17.70
2018,09,22,19,00,14.50
2018,09,22,19,01,16.10
2018,09,22,19,02,16.10
2018,09,22,19,03,20.90
2018,09,22,19,04,20.90
2018,09,22,19,05,17.70
2018,09,22,19,06,17.70
2018,09,22,19,07,38.60
2018,09,22,19,08,9.60
2018,09,22,19,09,11.30
2018,09,22,19,10,16.10
2018,09,22,19,11,11.30
2018,09,22,19,12,16.10
2018,09,22,19,13,14.50
2018,09,22,19,14,14.50
2018,09,22,19,15,17.70
2018,09,22,19,16,19.30
2018,09,22,19,17,9.60
2018,09,22,19,18,8.10
2018,09,22,19,19,14.50
2018,09,22,19,20,22.50
2018,09,22,19,21,17.70
2018,09,22,19,22,14.50
2018,09,22,19,23,11.30
2018,09,22,19,24,6.40
2018,09,22,19,25,4.80
2018,09,22,19,26,24.20
2018,09,22,19,27,19.30
2018,09,22,19,28,16.10
2018,09,22,19,29,6.40
2018,09,22,19,30,6.40
2018,09,22,19,31,9.60
2018,09,22,19,32,11.30
2018,09,22,19,33,25.70
2018,09,22,19,34,24.20
2018,09,22,19,35,9.60
2018,09,22,19,36,9.60
2018,09,22,19,37,19.30
2018,09,22,19,38,17.70
2018,09,22,19,39,20.90
2018,09,22,19,40,11.30
2018,09,22,19,41,4.80
2018,09,22,19,42,3.20
2018,09,22,19,43,17.70
2018,09,22,19,44,9.60
2018,09,22,19,45,19.30
2018,09,22,19,46,20.90
2018,09,22,19,47,8.10
2018,09,22,19,48,14.50
2018,09,22,19,49,14.50
2018,09,22,19,50,6.40
2018,09,22,19,51,11.30
2018,09,22,19,52,6.40
2018,09,22,19,53,4.80
2018,09,22,19,54,8.10
2018,09,22,19,55,25.70
2018,09,22,19,56,17.70
2018,09,22,19,57,16.10
2018,09,22,19,58,9.60
2018,09,22,19,59,12.90
2018,09,22,20,00,17.70
2018,09,22,20,01,11.30
2018,09,22,20,02,14.50
2018,09,22,20,03,11.30
2018,09,22,20,04,16.10
2018,09,22,20,05,22.50
2018,09,22,20,06,8.10
2018,09,22,20,07,9.60
2018,09,22,20,08,9.60
2018,09,22,20,09,16.10
2018,09,22,20,10,14.50
2018,09,22,20,11,11.30
2018,09,22,20,12,20.90
2018,09,22,20,13,20.90
2018,09,22,20,14,22.50
2018,09,22,20,15,16.10
2018,09,22,20,16,4.80
2018,09,22,20,17,19.30
2018,09,22,20,18,19.30
2018,09,22,20,19,20.90
2018,09,22,20,20,17.70
2018,09,22,20,21,17.70
2018,09,22,20,22,14.50
2018,09,22,20,23,16.10
2018,09,22,20,24,16.10
2018,09,22,20,25,14.50
2018,09,22,20,26,14.50
2018,09,22,20,27,17.70
2018,09,22,20,28,16.10
2018,09,22,20,29,6.40
2018,09,22,20,30,6.40
2018,09,22,20,31,16.10
2018,09,22,20,32,17.70
2018,09,22,20,33,9.60
2018,09,22,20,34,6.40
2018,09,22,20,35,16.10
2018,09,22,20,36,11.30
2018,09,22,20,37,9.60
2018,09,22,20,38,6.40
2018,09,22,20,39,9.60
2018,09,22,20,40,16.10
2018,09,22,20,41,14.50
2018,09,22,20,42,16.10
2018,09,22,20,43,14.50
2018,09,22,20,44,11.30
2018,09,22,20,45,14.50
2018,09,22,20,46,19.30
2018,09,22,20,47,17.70
2018,09,22,20,48,9.60
2018,09,22,20,49,14.50
2018,09,22,20,50,11.30
2018,09,22,20,51,6.40
2018,09,22,20,52,11.30
2018,09,22,20,53,9.60
2018,09,22,20,54,8.10
2018,09,22,20,55,8.10
2018,09,22,20,56,9.60
2018,09,22,20,57,8.10
2018,09,22,20,58,9.60
2018,09,22,20,59,9.60
2018,09,22,21,00,17.70
2018,09,22,21,01,9.60
2018,09,22,21,02,17.70
2018,09,22,21,03,9.60
2018,09,22,21,04,20.90
2018,09,22,21,05,14.50
2018,09,22,21,06,14.50
2018,09,22,21,07,11.30
2018,09,22,21,08,16.10
2018,09,22,21,09,14.50
2018,09,22,21,10,14.50
2018,09,22,21,11,22.50
2018,09,22,21,12,20.90
2018,09,22,21,13,19.30
2018,09,22,21,14,9.60
2018,09,22,21,15,29.00
2018,09,22,21,16,16.10
2018,09,22,21,17,20.90
2018,09,22,21,18,17.70
2018,09,22,21,19,11.30
2018,09,22,21,20,16.10
2018,09,22,21,21,17.70
2018,09,22,21,22,24.20
2018,09,22,21,23,17.70
2018,09,22,21,24,17.70
2018,09,22,21,25,24.20
2018,09,22,21,26,20.90
2018,09,22,21,27,24.20
2018,09,22,21,28,20.90
2018,09,22,21,29,25.70
2018,09,22,21,30,19.30
2018,09,22,21,31,16.10
2018,09,22,21,32,14.50
2018,09,22,21,33,9.60
2018,09,22,21,34,20.90
2018,09,22,21,35,14.50
2018,09,22,21,36,16.10
2018,09,22,21,37,6.40
2018,09,22,21,38,16.10
2018,09,22,21,39,16.10
2018,09,22,21,40,4.80
2018,09,22,21,41,9.60
2018,09,22,21,42,8.10
2018,09,22,21,43,11.30
2018,09,22,21,44,17.70
2018,09,22,21,45,19.30
2018,09,22,21,46,19.30
2018,09,22,21,47,24.20
2018,09,22,21,48,22.50
2018,09,22,21,49,25.70
2018,09,22,21,50,11.30
2018,09,22,21,51,6.40
2018,09,22,21,52,14.50
2018,09,22,21,53,16.10
2018,09,22,21,54,9.60
2018,09,22,21,55,19.30
2018,09,22,21,56,22.50
2018,09,22,21,57,27.40
2018,09,22,21,58,22.50
2018,09,22,21,59,11.30
2018,09,22,22,00,8.10
2018,09,22,22,01,19.30
2018,09,22,22,02,9.60
2018,09,22,22,03,8.10
2018,09,22,22,04,25.70
2018,09,22,22,05,14.50
2018,09,22,22,06,16.10
2018,09,22,22,07,16.10
2018,09,22,22,08,16.10
2018,09,22,22,09,11.30
2018,09,22,22,10,19.30
2018,09,22,22,11,22.50
2018,09,22,22,12,17.70
2018,09,22,22,13,11.30
2018,09,22,22,14,20.90
2018,09,22,22,15,27.40
2018,09,22,22,16,20.90
2018,09,22,22,17,20.90
2018,09,22,22,18,20.90
2018,09,22,22,19,17.70
2018,09,22,22,20,30.60
2018,09,22,22,21,19.30
2018,09,22,22,22,17.70
2018,09,22,22,23,14.50
2018,09,22,22,24,17.70
2018,09,22,22,25,20.90
2018,09,22,22,26,20.90
2018,09,22,22,27,16.10
2018,09,22,22,28,24.20
2018,09,22,22,29,17.70
2018,09,22,22,30,22.50
2018,09,22,22,31,16.10
2018,09,22,22,32,20.90
2018,09,22,22,33,29.00
2018,09,22,22,34,16.10
2018,09,22,22,35,14.50
2018,09,22,22,36,11.30
2018,09,22,22,37,8.10
2018,09,22,22,38,25.70
2018,09,22,22,39,27.40
2018,09,22,22,40,12.90
2018,09,22,22,41,8.10
2018,09,22,22,42,9.60
2018,09,22,22,43,20.90
2018,09,22,22,44,25.70
2018,09,22,22,45,9.60
2018,09,22,22,46,17.70
2018,09,22,22,47,17.70
2018,09,22,22,48,8.10
2018,09,22,22,49,14.50
2018,09,22,22,50,11.30
2018,09,22,22,51,4.80
2018,09,22,22,52,8.10
2018,09,22,22,53,6.40
2018,09,22,22,54,9.60
2018,09,22,22,55,6.40
2018,09,22,22,56,9.60
2018,09,22,22,57,4.80
2018,09,22,22,58,4.80
2018,09,22,22,59,3.20
2018,09,22,23,00,9.60
2018,09,22,23,01,6.40
2018,09,22,23,02,9.60
2018,09,22,23,03,11.30
2018,09,22,23,04,6.40
2018,09,22,23,05,3.20
2018,09,22,23,06,6.40
2018,09,22,23,07,3.20
2018,09,22,23,08,3.20
2018,09,22,23,09,4.80
2018,09,22,23,10,3.20
2018,09,22,23,11,6.40
2018,09,22,23,12,3.20
2018,09,22,23,13,8.10
2018,09,22,23,14,14.50
2018,09,22,23,15,14.50
2018,09,22,23,16,6.40
2018,09,22,23,17,9.60
2018,09,22,23,18,4.80
2018,09,22,23,19,8.10
2018,09,22,23,20,6.40
2018,09,22,23,21,11.30
2018,09,22,23,22,16.10
2018,09,22,23,23,9.60
2018,09,22,23,24,14.50
2018,09,22,23,25,12.90
2018,09,22,23,26,9.60
2018,09,22,23,27,11.30
2018,09,22,23,28,4.80
2018,09,22,23,29,11.30
2018,09,22,23,30,4.80
2018,09,22,23,31,6.40
2018,09,22,23,32,9.60
2018,09,22,23,33,1.60
2018,09,22,23,34,3.20
2018,09,22,23,35,9.60
2018,09,22,23,36,3.20
2018,09,22,23,37,4.80
2018,09,22,23,38,6.40
2018,09,22,23,39,4.80
2018,09,22,23,40,6.40
2018,09,22,23,41,11.30
2018,09,22,23,42,3.20
2018,09,22,23,49,3.20
2018,09,22,23,52,4.80
2018,09,22,23,53,4.80
2018,09,22,23,54,4.80
2018,09,22,23,55,4.80
2018,09,22,23,56,1.60
